Starlink 30765

operational
NORAD ID: 58119 Int'l Des: 2023-162 Owner: SPXS Country: US Constellation: starlink
LEOCIRCULAR

关于 Starlink 30765

正在加载描述...

实时位置

正在加载3D地球...

即将过境

高度历史

Altitude vs Time

uPlot chart will show altitude changes over time

两行轨道根数

1 58119U 23162B 25258.56700826 -.00000258 00000-0 -40385-5 0 9996
2 58119 43.0064 4.9308 0001743 266.9865 93.0778 15.02536063105959
Epoch: Sep 15, 2025 • Age: 12 hours

当前状态

高度 569.4 km
速度 7.58 km/s
星下点 -38.38°S, 143.42°W
发射日期 Oct 22, 2023
运行时间 1.9 years
类型 internet

技术详情

分类 Payload
质量 730.00 kg
干质量 700.00 kg
总质量 730.00 kg
长度 0.30 m
直径 4.10 m
跨度 29.00 m
形状 Box + pan
制造商 SPXS
平台类型 Starlink V2M
阶段状态 In Orbit
所有者/国家 SPXS/US

大型星座

Loading constellations...